Showing default

BEIDOU 1D, 30323

Orbit data source: Space-Track

BEIDOU 1D, 30323 is a payload satellite owned by CNSA (CN) in GEO that was launched on Fri, 02 Feb 2007 UTC via a CHANG ZHENG 3A launch vehicle from the Xichang Space Center, China (XSC). Payload-class satellites include a variety of spacecraft equipped with specific instruments for various scientific and technological missions. These include communications satellites like Starlink; space stations such as the ISS; scientific satellites like the Hubble; Earth observation satellites from companies like Planet Labs, Umbra, and HawkEye 360; GPS; miniature CubeSats for education and research; and military/defense satellites.

Loading next visibility...
Identifier
30323, 2007-003A
Orbit
GEO
Country
Flag of CNCN / PRC
Related business
Manufacturer
CAST
Mission
Non-operational Defense Navigation
Bus & Motor
DFH-3, FY-25
Mass
2,299 kg wet, 1,300 kg dry
Launch date (UTC)
2007-02-02 (19 years ago)
Launch vehicle
CHANG ZHENG 3A
Launch site
Xichang Space Center, China (XSC)
Object type
Payload
Rocket body
Debris
Shape & HBR
Box + 2 Pan, 9.0 m
Radar Cross Section
13.998 m², Large (>1 m²)

Expand to show TLE details & history
Last TLE update: 12 hours ago

TLE from 12 hours ago
0 BEIDOU 1D
1 30323U 07003A   25258.79231690 -.00000266  00000-0  00000-0 0  9995
2 30323   9.2434  59.8106 0052977 264.8186 284.1823  0.99158219 67981
Epoch: 2025-09-15T19:00Z
TLE epoch observation values (Epoch: 2025-09-15T19:00:56.18Z)
Latitude
-1.33005°
Longitude
-32.11886°
Altitude
36,048.034 km
Speed
3.067 km/s
True Right ascension
16h 32m 25s
True Declination
-1° 19' 43"
Sunlit
Object was in daylight at epoch
Visualization orbit readout
Latitude
Unknown
Longitude
Unknown
Altitude
Unknown
Speed
Unknown
Apparent Right ascension
Unknown
Apparent Declination
Unknown
Sunlit
N/A
Visualization observer readout
Local Sidereal Time
23:32:56
Azimuth
Unknown
Elevation
Unknown
Doppler factor
Unknown
Orbital elements
Apogee altitude
36,327.759 km
Perigee altitude
35,877.658 km
Semi-major axis
42,480.846 km
Eccentricity
0.0053
Inclination
9.2434°
RAAN
59.8106°
Arg. of periapsis
264.8186°
True anomaly
283.59279°
Mean anomaly
284.1823°
Eccentric anomaly
283.88764°
Mean motion
0.24789 °/min
Orbital period
1,452.28 mins
BSTAR
0
Loading maneuver chart data...
Computing Atmospheric mass density...
Loading historical data...
Loading historical data...
Loading historical data...
Loading historical data...
Loading historical data...
Loading historical data...
Loading historical data...

Documentation

Showing up to 5 results
|